Powrót do katalogu

FENGYUN 1C DEB

AktywnyPO
NORAD 30516·DEBRIS·🇨🇳 China

Wystrzelony May 10, 1999 z Taiyuan Satellite Launch Center

Loading…

Następne Przeloty (najbliższe 24 godziny)

TLE

ŚwieżeSource: Space-Track

Epoka: Sep 14, 2026, 14:22 UTC

1 30516U 99025AJE 26257.59903873  .00004173  00000-0  12108-2 0  9995
2 30516  98.8656  17.6213 0009824 187.2275 295.2316 14.44903642 16949

Śledź FENGYUN 1C DEB w czasie rzeczywistym z AllMySat

Download on the App Store